SCOUT G-1 DEB, 18426

Orbit data source: Space-Track

SCOUT G-1 DEB, 18426 is space debris in LEO originally from a launch on Fri, 14 Nov 1986 UTC launched from the Air Force Western Test Range (AFWTR). Debris objects in space refer to the collection of defunct objects orbiting the Earth. Examples of debris include non-operational satellites, rocket bodies, and fragments generated from explosions, collisions, or faulty payload assembly.

Loading next visibility...
Identifier
18426, 1986-088C
Orbit
LEO
Country
Flag of USUS
Related business
Manufacturer
Unknown
Mission
Spacecraft
Bus & Motor
Unknown
Mass
2 kg wet, 2 kg dry
Launch date (UTC)
1986-11-14 (40 years ago)
Launch vehicle
Unknown
Launch site
Air Force Western Test Range (AFWTR)
Object type
Payload
Rocket body
Debris
Shape & HBR
Unknown shape, 0.1 m
Radar Cross Section
Medium (>0.1 m² and <1 m²)

Expand to show TLE details & history
Last TLE update: 4 days ago

TLE from 4 days ago
0 SCOUT G-1 DEB
1 18426U 86088C   26170.01558664  .00000171  00000-0  16605-3 0  9992
2 18426  89.1242 252.6040 0070074 147.1801  30.6819 13.73890240981190
Epoch: 2026-06-19T00:22Z
TLE epoch observation values (Epoch: 2026-06-19T00:22:26.685Z)
Latitude
1.61805°
Longitude
159.71757°
Altitude
944.138 km
Speed
7.402 km/s
True Right ascension
04h 50m 19s
True Declination
1° 36' 31"
Sunlit
Object was in daylight at epoch
Visualization orbit readout
Latitude
Unknown
Longitude
Unknown
Altitude
Unknown
Speed
Unknown
Apparent Right ascension
Unknown
Apparent Declination
Unknown
Sunlit
N/A
Visualization observer readout
Local Sidereal Time
02:19:21
Azimuth
Unknown
Elevation
Unknown
Doppler factor
Unknown
Orbital elements
Apogee altitude
1,034.234 km
Perigee altitude
931.074 km
Semi-major axis
7,360.791 km
Eccentricity
0.00701
Inclination
89.1242°
RAAN
252.604°
Arg. of periapsis
147.1801°
True anomaly
31.09475°
Mean anomaly
30.6819°
Eccentric anomaly
30.88801°
Mean motion
3.43682 °/min
Orbital period
104.75 mins
BSTAR
0.00016605
Loading maneuver chart data...
Computing Atmospheric mass density...
Loading historical data...
Loading historical data...
Loading historical data...
Loading historical data...
Loading historical data...
Loading historical data...
Loading historical data...
Other satellites on launch #88 in the year 1986 (1986-11-14 UTC)

Documentation

Showing up to 5 results
|